Tracking 28790 objects as of 19-Apr-2024
HD Live streaming from Space Station
objects crossing your sky now

CZ-4C DEB

Track CZ-4C DEB now!
10-day predictions


NORAD ID: 43418
Int'l Code: 2014-080G
Perigee: 865.5 km
Apogee: 1,331.2 km
Inclination: 63.4 °
Period: 107.1 minutes
Semi major axis: 7469 km
RCS: Unknown
Launch date: December 10, 2014
Source: People's Republic of China (PRC)
Launch site: Jiuquan Satellite Launch Center, China (JSC)

Note: This is SATELLITE DEBRIS
Your satellite tracking list
Your tracking list is empty




NASA's NSSDC Master Catalog

Two Line Element Set (TLE):
1 43418U 14080G   24109.67277156  .00000129  00000-0  27839-3 0  9994
2 43418  63.3981 194.5472 0311782   6.3380 354.1449 13.44864621438820
Source of the keplerian elements: AFSPC